Theta_e
290 290 291 291 291 290 291 291 291 291 291 291 292 293 293 294 294 294 295 295 294 294 294 294 294 294 295 295 296 297 297 297 297 298 298 298 298 298 299 299 299 299 299 299 299 299 300 300 300 300 300 301 301 301 302 302 302 302 302 303 303 303 303 304 304 304 305 305 306 306 306 307 307 307 307 307 307 307 307 307 307 308 307 308 308 308
289 290 290 291 290 290 290 291 291 291 291 291 292 292 293 293 293 293 294 294 294 294 294 294 294 294 294 295 296 296 297 297 297 297 298 298 298 298 298 299 299 299 299 299 299 299 300 300 300 300 300 300 300 301 301 301 302 302 302 302 302 302 303 303 303 303 304 304 305 305 306 306 306 306 306 307 307 307 307 307 307 307 307 307 307 307
288 289 289 290 290 289 289 290 291 292 291 292 292 292 293 292 292 293 293 293 294 294 294 294 294 294 294 295 296 296 297 297 297 297 298 298 298 298 298 299 299 299 299 299 299 299 299 300 300 300 300 300 300 300 300 301 301 301 301 301 301 302 302 302 302 302 303 303 304 304 304 305 305 305 305 305 305 306 305 306 306 306 306 306 307 307
287 288 288 289 289 289 289 290 291 292 292 292 292 293 293 292 292 292 293 293 294 294 294 294 294 294 294 295 296 296 297 297 297 298 298 298 298 298 299 299 299 299 299 299 299 299 299 299 299 299 300 300 300 300 300 300 301 301 301 301 301 301 302 302 302 302 302 302 303 303 303 303 303 304 304 304 304 304 304 304 305 305 305 306 306 306
287 288 288 288 288 289 290 290 291 292 292 292 292 292 292 292 292 293 293 293 293 294 294 294 294 294 294 294 295 296 297 297 297 298 298 298 298 298 298 299 299 299 299 299 299 299 299 299 299 299 300 300 300 300 300 301 301 301 301 301 301 301 301 302 302 302 302 302 302 302 302 302 303 303 303 303 303 303 303 304 304 305 305 305 305 305
287 288 288 288 288 289 290 290 291 291 291 291 292 292 292 292 292 292 292 293 293 293 293 294 294 294 294 294 295 296 297 297 297 298 298 298 298 298 299 299 299 299 299 299 299 299 299 299 299 300 300 300 300 300 300 301 301 301 301 301 301 301 301 302 302 302 302 302 302 302 302 302 302 303 303 303 303 303 303 303 304 304 305 305 305 305
287 288 289 288 289 289 290 290 290 290 290 290 291 291 292 292 292 292 292 293 293 293 293 294 294 294 294 295 295 296 297 297 297 297 298 298 298 298 298 299 299 299 299 299 299 299 299 299 299 299 300 300 300 300 300 300 301 301 301 301 301 301 301 301 302 302 302 302 302 302 302 302 302 302 303 303 303 303 303 303 304 304 305 305 305 306
287 288 288 288 288 289 289 289 290 291 290 290 290 290 290 291 291 292 292 293 293 293 293 293 293 294 294 295 295 296 296 296 296 297 297 297 298 298 298 298 298 299 299 299 299 299 299 299 299 299 299 299 300 300 300 300 300 300 300 300 301 301 301 301 301 301 301 301 301 301 302 302 302 302 302 302 303 303 303 303 303 304 304 305 305 306
287 287 288 288 288 288 288 288 290 291 291 290 289 289 289 289 289 290 291 292 292 293 292 292 292 292 293 294 295 295 295 296 296 296 296 296 297 297 298 298 298 299 299 299 299 299 299 299 299 299 299 299 299 300 300 300 300 299 300 300 300 300 300 300 300 300 300 301 301 301 301 301 301 301 302 302 302 302 302 302 302 303 303 304 304 305
287 287 287 288 288 288 287 288 289 290 291 291 290 290 289 289 289 288 289 289 291 292 292 291 291 291 292 293 294 295 295 295 296 297 297 297 297 297 298 298 298 298 299 299 299 299 299 299 299 299 299 299 299 299 299 299 299 299 299 299 299 299 299 299 300 300 300 300 300 300 301 301 301 301 301 301 301 301 301 301 301 301 302 302 303 304
286 287 287 287 287 288 288 288 289 290 291 291 291 291 291 290 289 288 287 288 289 290 291 291 291 291 291 292 293 294 294 294 295 296 297 297 297 298 298 298 298 298 298 298 298 298 298 298 298 298 298 298 298 298 298 298 298 298 298 299 299 299 299 299 299 299 299 300 300 300 300 300 300 300 300 300 300 300 300 300 300 300 301 301 302 302
286 286 286 287 287 288 288 289 290 290 291 290 290 289 289 290 290 289 287 287 288 289 290 290 291 292 292 292 293 293 294 293 293 294 295 296 296 297 297 297 297 297 298 298 297 297 298 297 298 297 298 298 298 298 298 298 298 298 298 298 298 298 298 299 299 299 299 299 299 300 300 300 300 300 300 300 300 300 300 300 300 300 300 300 301 301
286 286 286 287 287 288 288 288 289 289 289 289 288 287 287 288 289 289 288 288 288 289 290 290 291 292 294 294 293 293 293 292 292 293 294 294 295 296 296 296 296 296 296 296 296 296 297 297 297 297 297 297 297 297 297 297 297 297 298 298 298 298 298 298 298 299 299 299 299 299 299 300 300 300 300 300 300 300 300 300 300 300 300 300 300 300
286 286 286 286 287 287 288 288 287 287 287 287 287 287 288 289 289 289 288 288 289 290 290 290 291 292 293 293 293 293 292 292 292 293 293 294 294 295 295 295 295 295 296 295 295 295 296 296 296 296 297 297 297 297 297 297 297 297 297 298 298 298 298 298 298 298 299 299 299 299 299 299 299 299 299 300 300 300 300 300 300 300 300 300 300 300
286 287 286 286 286 287 287 287 286 286 286 287 288 288 289 289 289 288 288 288 288 290 290 291 291 291 291 292 293 293 293 292 292 292 292 293 294 295 295 294 295 295 295 295 295 295 296 296 296 296 296 297 297 297 297 297 297 297 297 297 298 298 298 298 298 298 298 299 299 299 299 299 299 299 299 300 300 300 300 300 300 300 300 300 300 300
288 287 286 286 286 286 287 287 287 286 287 288 288 288 288 288 288 288 288 288 288 289 290 289 288 288 289 291 293 293 293 292 291 291 291 292 293 295 295 294 294 294 295 295 295 295 296 296 296 296 296 296 296 297 297 297 297 297 297 297 298 297 298 298 298 298 298 299 299 299 299 299 299 299 299 299 299 299 300 300 300 300 300 300 300 300
288 287 287 286 286 286 287 287 287 287 288 288 288 288 288 288 288 288 289 289 289 289 289 288 286 285 286 289 291 293 293 292 291 291 291 291 293 294 295 294 294 294 294 295 295 295 295 295 295 295 295 296 296 297 297 297 297 297 297 297 297 297 298 298 298 298 298 298 299 299 299 299 299 299 299 299 299 300 300 300 300 300 300 300 300 301
287 287 287 286 286 286 287 287 288 288 288 288 288 289 289 289 290 290 290 290 289 289 288 287 286 285 285 286 289 291 293 292 291 291 291 291 293 294 295 295 294 294 294 294 294 295 295 295 295 295 295 296 297 297 297 297 297 297 297 297 297 297 298 298 298 298 298 298 298 299 299 299 299 299 299 299 299 299 299 299 299 299 300 300 300 300
287 287 287 287 287 287 287 288 288 288 289 289 289 290 290 290 291 290 290 289 289 288 287 287 286 286 286 286 288 291 293 292 291 291 290 291 292 294 295 294 294 293 293 293 294 294 295 295 296 296 296 296 297 296 296 296 297 297 297 297 297 297 298 298 298 298 298 298 298 299 299 299 299 299 299 299 299 299 299 299 299 299 299 299 300 300
286 287 287 288 288 288 288 289 290 290 290 291 291 291 290 290 290 289 288 288 289 288 288 287 287 287 287 287 289 291 292 292 292 291 290 290 291 293 294 294 293 292 292 293 294 294 295 295 295 296 296 296 296 296 296 296 297 297 297 297 297 297 297 298 298 298 298 298 298 298 298 298 299 299 299 299 299 299 299 299 299 299 299 299 299 299
287 287 288 289 288 288 288 289 290 290 291 291 290 289 288 288 288 287 288 288 288 288 288 288 287 288 288 288 290 291 294 293 292 290 289 290 291 292 293 293 292 291 291 292 293 294 294 295 295 295 296 296 296 296 296 297 297 297 297 297 297 297 297 297 297 298 298 298 298 298 298 298 298 298 298 298 298 298 298 298 298 298 298 299 299 299
287 287 289 290 289 289 289 289 290 291 291 291 289 288 287 287 287 287 287 288 288 288 288 288 289 290 291 291 292 293 295 293 292 291 289 289 289 291 293 293 292 291 291 291 293 294 294 294 294 295 296 296 296 296 296 297 297 297 297 297 297 297 297 297 297 297 297 298 298 298 298 298 298 298 298 298 298 298 298 298 298 298 298 298 298 298
289 289 290 290 290 290 290 290 290 291 291 290 290 289 289 288 288 288 288 288 288 288 289 290 291 292 292 293 293 294 294 294 293 292 290 288 288 289 292 292 291 290 290 291 292 293 294 294 294 295 296 296 296 296 297 297 297 297 297 297 297 297 297 297 297 297 297 297 298 298 298 298 298 298 298 298 298 298 298 298 298 298 298 298 297 297
290 290 290 290 291 290 290 290 290 291 291 291 290 290 290 290 290 290 290 289 289 289 289 290 290 290 291 292 292 293 293 293 293 292 290 288 288 289 291 291 290 289 289 291 292 293 293 293 294 294 295 296 296 296 296 297 296 297 297 296 296 296 297 297 297 297 297 297 297 297 298 298 297 297 297 297 297 297 297 297 297 297 297 297 297 297
292 291 291 292 292 292 292 292 292 292 292 292 291 291 291 291 291 291 290 290 289 289 289 288 288 288 289 290 290 290 291 293 292 291 289 288 287 288 290 290 290 289 289 291 292 292 292 292 293 293 294 295 296 296 296 296 296 296 296 297 296 297 296 296 297 297 297 297 297 297 297 297 297 297 297 297 297 296 296 296 296 296 296 296 296 296
294 293 293 294 294 295 295 295 295 295 295 294 293 292 292 291 290 290 289 289 289 289 288 287 286 286 287 287 287 288 290 292 292 291 289 288 287 288 289 290 290 289 289 290 291 292 291 291 292 293 293 294 295 296 296 296 296 296 296 297 296 296 296 296 296 296 297 297 297 297 297 297 296 296 296 296 296 296 296 296 296 295 295 295 295 295
296 296 296 296 296 296 296 296 296 296 296 296 295 295 294 292 291 290 289 289 289 288 287 285 285 285 285 285 286 287 289 290 291 291 290 289 287 287 288 289 290 289 289 289 290 291 291 291 292 292 293 294 295 295 296 296 296 296 296 296 296 296 296 296 296 296 296 296 296 296 296 296 296 296 295 295 295 295 295 295 295 295 295 295 295 295
296 296 296 296 296 296 295 295 295 296 296 296 296 296 295 292 290 289 288 289 289 288 286 285 284 284 284 285 285 287 289 289 290 291 291 289 287 286 288 289 289 289 288 289 290 291 292 292 292 292 293 294 294 295 295 296 296 296 296 296 296 296 296 296 296 296 296 296 296 296 296 295 295 295 295 295 295 295 294 294 294 294 294 294 294 294
295 295 295 295 295 295 295 295 295 295 296 296 296 295 294 292 290 289 289 289 288 287 286 285 284 284 284 284 285 286 287 288 289 290 290 288 287 287 288 289 289 289 289 289 289 290 290 290 291 291 292 293 293 294 294 295 295 295 295 295 295 295 295 295 295 295 295 295 295 295 295 295 295 295 294 294 294 294 294 294 294 294 293 293 293 293
292 293 293 293 294 294 294 294 294 294 294 295 294 294 294 292 291 290 290 290 288 287 285 285 285 284 284 284 284 284 285 287 289 291 291 289 287 287 289 289 289 289 289 287 286 286 286 288 289 290 291 292 292 293 293 294 294 294 295 295 295 295 295 295 295 295 295 295 295 295 295 295 294 294 294 294 293 293 293 293 293 293 293 292 292 292
290 291 291 292 293 293 293 293 293 293 293 293 293 293 293 292 291 290 290 289 288 287 286 285 285 285 284 284 282 282 282 286 289 291 291 288 287 287 288 287 288 288 288 287 284 283 283 285 287 289 290 290 291 292 292 293 293 293 294 294 294 294 294 294 294 294 294 294 294 294 294 294 294 293 293 293 293 293 293 292 293 292 292 291 291 291
290 291 291 292 292 292 292 292 292 292 292 292 291 291 291 291 290 290 290 289 288 287 286 285 285 285 285 284 283 282 283 285 288 290 290 288 287 287 288 287 287 288 288 287 285 283 282 283 285 287 289 289 290 290 292 292 293 293 293 293 293 293 294 294 294 294 294 294 294 294 293 293 293 293 293 293 292 292 292 292 292 292 291 291 290 290
290 291 291 291 291 291 291 291 291 290 290 290 290 290 290 290 290 290 290 289 289 288 287 286 285 285 284 284 283 283 284 286 288 290 290 288 287 287 288 287 287 287 287 287 286 285 284 284 284 286 287 288 289 290 291 292 293 293 293 292 292 292 293 294 294 294 294 294 294 294 293 293 293 293 293 293 292 292 292 292 291 291 291 290 290 289
290 290 289 289 289 289 290 290 290 290 289 289 289 289 289 289 289 290 289 290 289 289 288 287 286 285 284 284 283 284 284 286 288 290 291 289 287 286 286 286 285 285 285 285 284 284 284 284 284 285 286 287 289 290 291 292 292 293 293 293 292 292 293 293 293 293 294 294 294 294 294 294 293 293 292 292 292 292 291 291 291 291 291 291 290 290
288 288 288 288 288 288 289 289 289 289 289 289 289 289 289 289 289 289 289 290 290 289 289 288 288 287 285 284 284 284 284 286 288 290 290 288 287 285 285 284 284 284 283 283 283 283 283 284 284 285 285 287 288 289 290 291 292 292 292 292 292 292 292 293 293 293 293 293 293 293 293 293 293 293 292 292 292 291 291 291 291 291 291 291 290 290
287 287 287 287 287 287 287 288 288 288 288 288 288 288 289 289 289 289 290 290 290 290 289 289 289 289 288 287 286 285 285 287 289 290 290 289 287 285 284 284 284 284 283 283 283 283 283 284 284 285 285 285 285 286 288 290 291 292 292 292 292 292 292 292 293 293 293 292 292 292 293 293 293 292 292 292 291 291 291 291 291 291 291 291 291 290
286 286 286 287 287 287 287 287 287 287 287 287 288 288 289 289 289 290 290 290 290 290 290 290 290 290 290 289 288 287 287 288 289 289 289 289 287 286 284 284 284 284 284 283 283 283 283 283 283 283 283 283 284 285 286 288 290 291 291 291 292 292 292 292 293 292 292 292 292 292 292 292 292 292 292 292 291 291 291 291 291 291 291 291 291 291
285 285 286 286 286 286 286 286 286 287 287 287 287 288 289 289 289 289 290 290 289 289 289 289 289 289 289 289 289 289 289 289 288 289 289 288 287 286 285 284 285 285 285 284 284 283 282 282 281 281 282 283 284 285 286 287 288 289 290 291 291 292 292 292 292 292 292 292 291 291 291 292 292 292 291 291 291 291 291 291 291 291 291 291 291 291
285 285 285 286 286 286 286 286 286 287 287 288 288 288 289 289 289 289 289 289 289 289 289 289 289 289 288 288 288 289 289 289 288 288 288 287 287 286 286 285 284 285 285 285 284 283 283 282 282 282 282 283 284 285 287 287 288 289 289 290 291 291 292 292 292 292 292 291 291 291 291 291 291 291 291 291 290 290 290 290 290 290 290 290 290 290
285 285 285 286 286 286 286 286 287 287 288 288 289 289 289 289 289 289 289 290 290 290 289 289 289 289 289 289 289 289 289 289 289 288 288 287 287 287 286 285 284 284 285 285 284 284 283 283 283 283 283 283 284 285 286 287 287 288 289 289 289 289 291 291 292 292 291 291 291 290 290 290 290 290 290 290 289 289 289 289 289 289 289 289 288 288
285 285 285 285 286 286 286 287 287 288 288 288 288 288 288 288 288 288 288 288 289 289 289 288 288 288 288 288 288 288 288 288 288 288 288 287 287 287 286 285 285 285 284 284 284 284 284 283 283 283 284 284 284 285 286 286 288 288 288 288 288 289 291 292 292 292 291 291 291 290 290 290 290 289 289 289 289 289 289 289 289 289 289 289 288 287
285 284 285 285 285 286 286 288 289 289 289 289 288 287 287 287 287 287 287 287 287 287 287 287 287 286 286 286 287 287 288 288 288 288 288 288 288 287 287 286 285 285 284 284 284 284 284 284 284 284 284 285 285 285 285 287 288 289 289 288 289 289 290 291 292 292 291 291 290 290 289 289 289 289 288 288 289 289 289 289 289 289 288 288 288 288
284 285 285 285 286 287 288 289 289 288 288 288 287 287 287 288 287 287 286 286 286 286 286 286 286 285 284 284 285 286 287 288 288 288 288 288 288 287 287 286 286 285 285 284 284 284 285 285 285 285 285 286 286 285 285 286 287 288 288 289 289 288 288 289 290 291 291 290 290 289 289 288 288 288 288 288 288 288 289 289 289 289 289 288 288 288
284 285 285 285 286 286 287 286 287 287 287 287 287 287 287 288 287 287 286 286 286 286 286 286 286 285 284 283 284 285 286 287 287 287 288 288 288 287 287 287 287 286 286 285 284 284 284 285 285 286 287 287 286 286 285 286 286 287 288 289 289 288 287 288 289 290 289 289 289 289 289 288 288 288 288 288 288 288 288 288 288 289 289 289 289 288
284 285 285 285 285 285 285 286 286 287 287 287 286 286 287 287 287 287 286 286 286 286 285 285 285 284 283 283 283 284 284 285 285 286 286 287 288 288 288 287 287 287 287 286 286 285 285 285 285 286 287 287 287 286 286 286 286 287 287 289 289 289 289 289 289 289 289 288 288 288 289 288 288 287 286 286 286 287 287 287 288 288 288 288 288 288
284 284 284 284 285 285 285 286 286 286 286 286 286 286 286 287 287 287 286 286 285 285 285 285 284 283 282 283 283 283 283 283 283 284 285 286 287 287 288 288 288 287 287 287 287 287 286 286 286 286 286 286 286 286 286 286 286 286 287 288 288 289 289 289 289 289 289 288 288 288 288 288 287 286 285 285 285 286 287 287 287 288 288 288 288 288
283 283 284 284 285 286 286 286 286 285 285 285 285 285 286 286 286 286 286 285 285 285 285 285 284 283 283 283 283 282 282 282 282 283 284 285 286 287 287 288 288 288 288 288 288 288 288 287 287 287 286 285 285 285 286 287 287 287 287 287 288 288 287 288 288 288 288 288 288 288 288 287 286 285 285 285 285 285 286 287 287 288 288 288 288 288
283 284 284 285 285 285 284 285 284 284 284 284 284 285 285 286 285 285 285 285 285 285 284 284 284 283 283 283 283 282 282 281 282 282 283 284 284 285 286 287 287 288 288 288 288 288 288 289 289 288 287 286 285 285 285 286 287 287 287 287 287 287 287 287 288 288 289 288 288 287 287 286 285 284 284 284 284 284 285 286 287 288 288 288 288 287
284 284 284 284 284 283 283 284 284 284 283 283 284 284 285 285 285 285 284 285 284 284 284 283 283 283 283 283 283 283 282 282 282 282 282 283 284 284 285 286 287 287 287 287 287 288 288 289 290 289 289 288 286 285 286 286 287 287 287 287 287 287 287 287 288 288 288 288 287 287 286 286 285 285 284 283 283 283 284 285 286 287 288 288 288 288
284 284 284 284 283 283 283 283 283 283 283 283 283 283 284 284 285 285 285 284 284 284 284 283 283 282 282 282 282 282 282 282 282 282 282 283 283 284 284 285 286 285 285 285 285 286 286 287 288 289 291 290 289 287 286 286 286 287 287 287 287 287 287 287 287 288 288 287 287 287 286 286 285 285 284 283 283 283 283 284 285 286 287 288 288 288
284 284 284 283 283 283 283 283 283 283 282 283 283 283 283 283 283 284 284 284 284 284 284 284 283 283 282 282 282 282 282 282 282 282 282 283 283 284 284 285 284 284 283 282 283 283 283 283 284 286 288 290 290 289 287 287 286 286 286 286 287 287 287 287 287 287 287 287 286 286 286 285 285 285 284 283 283 282 282 283 285 286 287 288 288 289
Wind_Speed
7 7 8 10 10 10 9 11 12 12 11 10 9 9 9 10 10 11 13 13 13 12 11 11 12 13 14 16 18 19 20 21 21 21 21 22 22 22 22 21 21 21 21 21 21 21 21 21 21 21 21 21 21 21 21 21 22 21 21 21 21 21 21 20 20 20 20 20 20 20 20 19 19 19 19 19 19 19 19 19 19 20 21 21 21 20
7 7 8 10 11 11 9 11 12 12 11 11 10 10 10 11 10 10 10 12 12 12 11 11 11 13 14 15 17 19 19 20 20 21 21 21 22 22 22 22 22 22 22 21 21 21 21 21 21 21 21 20 21 21 21 21 21 21 21 21 20 20 20 20 20 20 20 20 20 20 20 20 19 19 19 19 18 18 18 18 18 19 19 20 20 20
8 7 7 8 9 10 9 10 11 11 12 12 11 11 13 13 11 10 9 10 10 10 10 10 11 12 13 14 16 18 19 20 20 20 21 21 21 22 22 22 22 22 22 22 22 22 21 21 21 21 20 20 20 20 20 20 20 21 21 20 20 20 20 20 20 20 20 20 20 20 21 20 20 20 19 19 19 19 18 18 18 19 19 20 20 20
8 8 7 7 8 9 9 10 10 10 10 11 12 13 14 12 11 9 9 9 10 10 10 11 11 11 11 11 13 16 18 19 20 20 21 21 22 22 22 22 22 22 22 22 22 22 21 21 21 21 20 20 20 20 20 20 20 20 20 20 20 20 20 20 20 20 20 20 20 20 21 21 21 21 20 20 20 19 19 19 19 20 20 20 20 20
8 8 7 7 7 8 9 9 10 10 9 10 11 12 12 10 9 9 9 10 10 10 10 10 11 11 10 10 12 15 18 19 20 21 21 22 22 22 22 22 22 22 22 22 21 21 21 21 20 20 20 20 20 20 20 20 20 20 20 20 20 20 20 20 20 20 20 20 20 20 20 20 21 21 21 21 20 20 20 20 20 21 21 21 21 21
8 8 7 7 7 7 7 8 8 8 9 9 9 9 9 9 9 9 9 9 10 9 9 9 9 10 11 11 13 15 18 19 20 21 21 21 21 21 21 21 21 21 21 21 21 21 20 20 20 20 20 20 19 19 19 19 20 19 19 19 19 19 19 19 19 19 19 19 19 19 19 20 20 20 20 20 20 20 20 20 20 21 21 21 21 21
8 7 7 7 7 7 7 7 8 8 8 8 8 8 8 8 9 9 9 9 9 9 9 9 9 10 11 12 13 15 16 17 18 19 19 20 19 19 19 19 20 20 20 20 20 20 20 20 20 20 19 19 19 19 19 19 19 19 19 19 19 19 19 19 18 18 18 18 18 18 18 18 19 19 19 19 19 19 19 19 20 20 20 21 21 21
9 8 7 7 7 7 6 7 7 8 8 8 7 8 8 8 8 9 10 10 10 9 9 8 8 9 9 11 12 12 12 13 13 14 15 16 16 17 17 18 19 19 20 20 20 20 20 20 20 20 19 19 19 19 19 19 19 19 19 19 18 18 18 18 18 17 17 17 17 17 17 17 17 17 18 18 18 18 18 18 18 18 19 19 20 20
10 9 8 8 8 8 7 7 7 7 8 8 7 7 8 8 8 8 8 9 9 8 8 8 8 8 9 9 10 11 11 11 11 11 12 12 13 14 15 17 18 19 19 20 20 20 20 20 20 20 19 19 19 19 19 19 19 19 18 18 18 18 18 17 17 17 17 17 17 16 17 17 17 17 17 17 17 17 17 17 17 17 17 18 18 19
10 10 9 8 8 7 8 7 7 7 8 8 8 7 8 8 8 8 8 8 8 7 7 8 8 8 8 9 9 10 11 11 12 14 14 14 14 15 16 16 16 17 18 19 19 19 19 19 19 19 19 19 19 19 19 19 18 18 18 18 17 17 17 17 17 16 16 16 16 16 16 16 16 16 16 16 16 16 16 16 16 16 16 17 17 18
9 9 9 8 7 7 7 7 7 7 8 8 8 8 7 8 8 8 9 8 8 7 7 7 8 8 8 8 8 9 10 10 11 12 14 15 16 16 16 16 16 16 17 18 18 18 18 18 18 18 18 18 18 18 18 18 18 17 17 17 17 16 16 16 16 16 16 16 16 16 16 16 16 16 16 16 16 16 16 16 16 16 16 16 17 17
8 8 7 7 7 6 6 7 6 6 7 7 7 7 7 7 7 8 9 8 8 8 8 8 7 7 8 8 9 9 9 9 9 9 10 11 11 12 12 12 12 13 14 14 14 15 15 15 15 16 16 16 16 16 16 16 16 17 17 17 16 16 16 16 16 16 16 16 16 15 15 15 15 15 15 16 16 16 16 16 16 16 16 16 17 17
8 7 7 7 6 6 6 6 6 5 6 6 7 7 7 6 6 7 7 8 8 8 9 8 8 8 8 8 8 8 8 9 9 9 8 8 8 8 8 8 8 8 8 9 9 10 12 13 13 13 14 14 15 15 15 15 16 16 16 16 16 16 16 16 16 16 16 16 16 15 15 15 15 15 15 15 15 15 15 15 16 16 16 16 16 17
8 7 7 7 6 6 5 6 6 6 6 6 7 7 7 6 6 7 7 8 8 8 9 9 8 8 7 7 8 8 8 8 8 8 8 7 7 7 7 7 7 7 7 7 7 8 9 9 10 10 12 13 13 14 14 14 15 16 16 16 16 16 16 16 16 16 16 16 16 16 15 15 15 15 15 15 15 15 15 16 16 16 16 16 17 17
8 7 7 7 7 6 6 6 7 7 7 7 7 7 7 7 7 7 7 8 8 8 8 9 9 8 6 6 7 8 8 8 8 7 8 7 7 7 8 8 7 7 7 7 7 7 8 8 8 8 10 11 12 12 13 14 15 16 16 16 17 17 17 17 17 17 16 16 16 16 16 15 15 15 15 15 15 15 15 16 16 16 16 16 17 17
7 7 8 8 8 7 6 7 7 7 7 7 7 8 8 7 7 7 7 8 8 7 7 8 8 7 6 6 7 8 8 7 7 7 8 8 8 8 8 8 8 8 7 7 7 7 7 7 8 8 9 11 13 14 15 15 15 16 16 17 17 17 17 17 17 17 17 17 16 16 16 16 16 16 16 15 15 15 15 16 16 16 16 16 16 17
7 8 8 9 9 8 7 7 7 7 7 7 7 7 7 7 7 7 7 7 7 6 6 6 7 6 5 5 6 6 7 7 6 7 8 8 8 8 8 8 8 8 8 8 7 7 7 7 7 8 8 11 13 14 15 15 16 16 17 17 17 17 17 17 17 17 17 17 17 17 16 16 16 16 16 16 16 15 15 15 15 15 15 16 16 16
8 8 9 9 9 8 7 7 7 7 7 7 7 7 7 7 7 7 7 7 7 7 6 6 6 6 5 5 5 5 7 7 6 7 8 8 8 8 8 8 8 8 8 8 8 7 7 7 7 8 9 12 14 15 16 16 16 17 17 17 17 17 17 17 17 17 17 17 17 17 17 17 16 16 16 16 15 15 15 15 15 15 15 15 15 16
9 8 8 9 8 8 7 7 7 7 7 7 7 7 7 7 7 8 8 8 8 8 7 7 7 6 6 6 6 6 7 6 6 5 6 8 8 8 8 7 7 8 8 8 8 8 7 7 8 10 12 14 15 15 16 16 16 17 17 17 17 17 17 17 17 17 17 17 17 17 17 16 16 16 15 15 15 15 15 14 14 14 14 15 15 15
9 8 8 8 8 8 7 7 6 6 6 6 7 7 8 8 9 9 9 9 9 8 8 8 8 8 7 8 8 8 7 6 5 4 5 7 8 8 8 7 7 8 8 8 8 7 7 7 8 10 12 13 14 15 15 15 16 16 17 17 17 17 17 17 17 17 17 17 16 16 16 15 15 15 15 15 15 14 14 14 14 14 14 15 15 15
9 9 8 7 7 8 7 7 8 9 10 10 9 9 9 9 9 9 9 9 9 9 9 8 8 8 7 8 8 8 8 7 6 5 4 5 6 7 7 7 7 8 8 8 7 7 7 7 8 8 10 12 13 14 14 15 15 16 17 17 17 17 17 16 16 16 16 16 15 15 15 14 14 14 14 14 14 14 13 13 13 13 14 14 15 15
10 10 10 11 10 10 9 9 10 12 12 11 10 9 8 9 9 10 10 9 9 9 9 9 8 8 8 8 8 8 8 8 7 5 4 5 6 7 6 6 7 8 8 8 7 7 7 8 7 8 10 12 13 14 14 15 15 16 16 17 17 17 16 16 16 16 15 15 15 14 14 13 13 13 13 13 13 13 13 13 13 13 13 14 14 15
12 11 12 12 11 11 10 10 10 11 11 10 10 9 8 9 9 10 9 8 8 8 8 8 8 8 7 7 8 8 8 8 7 6 4 5 6 7 6 6 7 7 8 7 7 7 8 8 7 8 10 12 13 14 14 15 15 16 16 16 16 16 16 16 15 15 15 14 14 13 13 13 13 13 12 12 12 12 12 12 12 13 13 13 14 14
12 12 12 11 10 9 9 9 9 9 9 9 9 9 10 10 9 9 7 7 7 7 6 7 7 6 6 7 7 8 8 8 7 5 4 5 6 6 6 6 7 7 8 7 7 8 8 7 7 7 8 11 13 14 14 14 15 15 15 15 15 15 15 15 15 14 14 13 13 12 12 12 12 12 12 11 11 11 11 11 12 12 12 13 13 14
12 11 11 11 11 11 11 11 11 11 11 9 9 9 9 10 9 8 7 7 6 6 5 5 6 6 5 6 6 7 7 7 6 5 4 5 5 6 6 6 7 7 7 7 7 7 7 7 7 7 7 9 11 13 13 14 14 14 15 14 14 14 14 14 14 13 13 12 12 11 11 11 11 11 11 10 10 10 10 11 11 11 12 13 13 14
15 15 15 16 17 19 20 20 20 20 20 16 13 10 9 8 8 7 6 6 5 5 6 6 7 7 6 6 6 6 5 6 6 5 4 4 5 5 6 6 6 7 7 7 7 7 7 7 7 7 7 8 10 11 12 13 13 14 14 13 13 13 13 12 12 12 12 11 10 10 10 10 10 10 10 9 9 10 10 10 10 11 12 13 13 14
23 23 24 24 25 25 26 26 27 28 28 24 20 16 12 10 9 9 8 7 6 6 7 8 8 8 7 7 6 6 5 5 5 5 5 4 5 5 5 5 6 6 7 7 6 7 7 7 7 7 7 7 8 9 11 12 12 13 12 12 12 12 11 11 11 11 10 10 9 9 9 9 9 9 9 9 9 9 9 10 10 11 12 12 12 11
24 24 25 25 26 26 26 26 26 26 25 24 23 20 15 10 9 9 9 8 8 8 8 8 8 8 7 6 6 6 6 5 5 5 5 5 4 5 5 5 5 6 6 5 5 6 7 7 7 7 7 7 7 8 10 11 11 11 11 10 10 10 10 10 10 10 9 9 9 8 8 8 8 8 8 8 8 8 9 10 10 11 11 10 8 7
19 20 22 23 23 23 23 22 21 20 20 19 18 16 12 8 8 8 9 8 8 8 8 8 8 7 7 6 6 5 5 5 5 5 5 4 4 4 4 4 4 4 4 4 4 5 6 6 6 7 7 7 7 7 7 9 9 9 9 9 9 9 9 9 9 9 8 8 8 8 8 7 7 7 7 8 8 8 9 10 10 9 8 7 7 6
14 15 17 18 18 17 16 14 13 14 15 15 15 14 11 8 7 8 9 8 8 8 8 8 8 7 6 6 5 4 4 4 4 3 2 3 3 3 3 4 4 4 3 3 4 4 4 5 5 6 6 7 6 6 6 7 7 7 7 7 8 8 9 9 8 8 8 8 7 7 7 7 7 7 7 8 8 8 9 9 9 8 6 6 6 6
12 12 12 12 11 10 9 9 9 10 11 12 12 12 10 8 7 8 8 8 7 7 7 7 7 6 6 5 4 3 3 3 3 3 2 2 3 4 4 5 5 5 4 3 3 4 4 4 4 4 5 6 6 6 7 7 7 7 6 6 6 7 8 8 8 7 7 7 7 7 7 7 7 7 7 7 8 8 8 9 8 7 6 6 6 6
11 9 8 7 7 7 7 7 7 8 8 8 8 8 8 8 8 8 7 7 7 7 6 6 6 6 5 5 4 4 3 4 4 5 4 3 3 4 5 5 5 4 4 4 4 4 4 4 3 4 5 6 6 6 7 7 7 7 6 6 6 6 7 7 7 6 6 6 6 6 6 7 7 7 7 7 7 8 8 8 8 7 6 6 6 7
8 6 5 5 6 6 7 7 7 7 7 6 6 6 6 7 7 8 7 7 6 6 6 6 5 5 5 5 5 5 4 4 5 5 5 3 3 3 4 4 4 5 4 4 5 5 5 5 4 4 5 5 6 6 6 6 6 7 6 6 6 6 6 6 6 5 5 5 5 5 6 6 6 7 7 7 7 7 8 8 8 8 7 6 6 7
6 6 6 6 6 7 7 7 7 7 6 6 6 6 6 6 6 7 7 7 6 6 6 5 5 5 5 5 5 5 5 5 5 5 4 3 3 3 4 4 5 5 5 5 5 5 5 6 6 5 5 5 4 4 4 5 5 6 6 6 6 5 5 5 5 5 4 4 4 4 4 5 5 6 6 6 7 7 7 8 9 9 9 8 7 7
6 6 7 7 7 7 7 7 7 7 6 6 5 5 6 6 6 6 6 6 6 6 6 5 5 5 5 5 5 5 5 5 5 5 5 4 4 3 4 4 4 5 5 5 5 5 5 6 7 6 5 4 4 3 4 4 5 5 6 6 6 5 5 5 5 4 4 4 4 3 3 3 4 4 5 5 6 7 7 8 9 10 11 10 9 8
6 7 7 7 7 6 6 7 6 6 6 5 5 5 5 6 6 6 6 6 6 6 5 5 5 5 5 5 6 6 6 6 6 7 7 5 5 4 4 4 5 5 5 6 6 5 5 6 6 6 6 5 4 4 4 4 4 5 5 5 5 5 5 4 4 4 4 4 4 4 3 3 3 4 4 5 6 7 8 9 10 11 11 11 11 10
7 7 7 6 6 6 6 6 6 6 6 6 5 5 6 6 6 5 5 5 5 5 5 6 6 6 6 6 6 6 6 6 7 7 8 7 6 5 5 5 5 6 6 6 6 6 6 6 6 7 6 6 5 4 4 4 4 4 5 5 5 4 4 4 4 4 4 4 4 4 4 3 4 4 4 5 6 6 7 9 9 10 10 11 11 11
7 7 6 6 5 5 6 6 6 6 6 5 5 5 6 6 6 5 5 5 5 5 5 5 5 6 7 7 7 7 7 8 8 8 8 7 7 6 6 6 6 6 5 5 6 6 6 6 6 6 5 5 5 5 5 4 4 4 5 5 4 4 4 4 4 4 4 4 4 4 4 4 4 4 4 4 4 5 6 6 7 7 8 8 9 10
7 7 6 6 6 6 6 6 6 6 6 6 6 5 5 6 6 6 5 5 5 6 6 6 5 5 5 6 7 8 9 9 9 9 8 7 7 7 7 7 6 6 5 5 5 6 6 6 6 5 5 5 5 6 5 5 5 5 5 5 4 4 4 4 4 4 4 4 4 4 4 4 4 4 4 4 4 5 5 5 5 5 6 6 7 8
7 6 6 6 6 6 6 6 6 6 6 6 6 6 5 5 5 5 5 5 6 6 6 6 6 5 5 6 7 8 8 8 8 8 7 6 6 6 7 6 6 6 5 5 5 6 6 6 6 7 6 6 5 5 5 5 5 5 5 5 4 4 4 4 4 4 4 4 4 4 4 3 4 4 4 4 4 5 5 4 4 4 5 5 5 6
6 6 6 6 6 6 7 7 7 6 6 6 6 5 4 4 4 4 4 5 5 4 4 5 5 5 5 6 6 7 7 8 9 9 8 7 7 7 7 6 6 5 5 6 6 6 6 7 7 7 7 7 7 6 6 6 6 7 7 5 5 4 4 4 4 4 4 3 3 3 3 3 4 4 4 4 4 4 4 5 5 5 5 5 5 5
6 6 6 6 6 6 6 7 7 7 6 5 5 5 4 4 3 3 4 4 4 4 4 4 4 5 5 5 5 6 6 7 8 9 9 8 8 8 7 6 6 5 5 6 6 7 7 7 7 7 7 7 6 6 6 6 6 6 6 5 6 6 5 5 4 3 3 3 3 2 2 3 3 4 4 4 4 5 5 5 6 6 5 5 5 5
6 6 6 6 6 7 7 7 7 6 5 5 5 4 4 3 3 3 4 4 4 4 4 4 4 4 5 5 5 4 5 5 6 7 8 7 7 7 7 7 6 5 5 5 6 6 7 7 7 7 7 7 6 6 6 6 6 6 6 6 5 5 4 3 2 2 2 2 2 1 2 2 3 3 4 4 5 5 5 6 6 6 6 5 5 5
6 6 6 6 7 7 7 7 6 5 5 4 4 3 3 3 3 4 4 4 5 5 4 4 4 4 5 5 5 4 4 4 5 6 6 7 7 7 7 7 7 7 6 6 5 5 6 6 6 6 6 6 6 6 6 6 6 6 5 6 6 5 4 3 2 1 1 1 1 1 2 2 3 3 4 4 5 5 5 5 5 5 5 5 5 5
5 6 6 6 7 7 7 7 6 4 3 3 2 2 2 3 4 4 4 5 5 5 5 4 4 4 4 4 4 4 3 4 4 5 5 6 7 7 6 6 6 7 7 6 6 6 5 5 6 6 5 6 6 6 6 6 6 6 6 6 6 5 5 4 3 2 2 2 2 2 2 2 3 3 4 4 4 4 5 5 5 5 4 4 4 5
5 5 6 6 7 7 7 5 4 3 2 2 2 2 2 3 4 4 5 5 5 5 5 4 4 4 4 4 4 3 3 4 4 4 4 4 5 5 5 5 5 6 6 6 6 6 6 6 6 6 6 6 6 6 6 6 6 6 6 5 5 4 4 4 3 3 3 3 3 2 2 2 3 3 4 4 4 4 5 5 5 5 5 4 4 4
5 6 6 6 6 5 4 3 2 2 2 2 3 3 3 3 4 4 5 5 5 5 5 5 5 5 5 5 4 3 4 5 5 5 4 4 5 5 4 4 5 5 6 6 6 7 7 7 7 6 6 6 5 5 5 5 5 5 5 5 4 3 3 3 3 3 3 3 3 2 2 2 3 3 4 4 4 4 4 4 4 4 4 4 4 4
6 6 6 5 4 3 3 3 3 3 3 3 3 3 4 4 5 5 5 5 5 5 5 5 5 6 6 5 4 4 4 5 5 5 5 5 5 5 4 4 4 5 5 6 7 7 7 7 7 7 7 6 5 5 5 5 5 5 4 4 4 3 3 3 2 2 2 2 2 2 3 2 3 3 4 4 4 4 4 4 4 4 3 3 3 4
6 6 6 5 4 3 3 3 3 3 4 4 4 4 4 5 5 6 5 5 5 5 5 6 6 6 5 5 4 4 4 5 5 5 5 4 4 4 4 4 4 4 5 5 6 6 6 6 7 7 7 6 5 5 5 5 5 4 4 4 3 3 3 2 2 1 1 1 1 2 2 2 2 3 3 4 4 4 4 4 4 4 3 2 3 3
6 6 5 4 4 4 3 4 4 4 4 5 5 5 5 5 5 5 5 5 5 5 6 6 6 6 6 5 4 4 4 4 4 4 4 4 4 4 4 4 4 4 4 5 4 4 4 3 4 6 7 7 6 5 5 4 4 4 3 3 2 2 2 2 1 1 1 1 1 1 2 2 2 2 2 3 4 4 4 4 4 3 2 2 2 3
6 6 5 4 4 4 4 4 4 4 5 5 5 5 5 5 5 5 5 5 6 6 6 6 6 6 6 5 4 4 4 4 4 4 4 4 4 4 5 4 4 4 4 4 4 4 3 3 2 2 4 6 6 4 3 4 4 3 3 2 1 1 1 1 1 1 1 1 1 1 2 2 2 2 2 2 3 4 4 4 3 3 2 2 3 3
Wind_Direction
289 290 290 289 288 287 285 286 287 287 287 286 287 288 289 289 289 289 289 289 289 288 287 286 286 286 287 288 288 289 290 290 291 292 292 293 293 294 294 294 294 293 293 292 291 290 289 288 287 286 285 284 283 282 282 281 280 280 279 279 278 278 278 279 279 279 279 279 278 277 277 276 276 276 277 276 277 278 279 280 280 279 279 278 278 277
286 286 285 286 286 285 285 285 285 286 286 287 288 289 291 291 291 290 290 289 288 288 287 287 287 287 288 288 288 289 289 289 290 290 290 291 291 292 292 292 292 292 292 291 291 290 290 289 288 287 287 286 285 284 283 282 281 280 280 279 279 278 278 278 278 278 278 278 278 277 277 276 276 275 275 275 276 277 279 280 280 280 279 280 280 279
288 286 284 284 285 284 285 287 286 286 287 288 289 290 290 290 290 289 289 288 288 287 287 287 288 288 288 288 288 288 288 288 288 289 289 289 289 290 290 290 291 291 291 291 291 291 290 290 289 289 288 286 285 284 283 282 281 280 279 279 278 278 277 277 276 276 275 275 276 276 276 276 275 275 275 275 275 276 278 278 278 278 278 279 279 279
285 284 285 286 285 285 285 288 288 288 287 287 287 287 287 287 287 287 287 288 289 288 287 287 287 288 288 288 287 287 287 287 288 288 288 288 288 288 288 289 289 289 289 290 290 290 290 290 289 288 287 286 285 284 282 281 280 279 278 278 277 276 276 275 274 274 273 273 273 273 273 274 274 274 274 275 276 276 277 277 277 277 277 278 278 278
281 283 287 289 287 286 285 287 288 288 286 285 284 284 284 284 285 287 288 288 289 289 288 288 287 287 287 286 286 286 287 287 287 287 286 286 286 286 286 286 286 287 287 287 288 288 288 288 287 287 286 285 284 283 282 281 280 279 278 277 276 275 274 274 273 273 272 272 272 271 271 271 271 272 273 273 274 275 275 276 276 277 277 277 277 277
283 285 289 288 288 287 288 286 285 285 284 283 282 283 283 284 286 287 288 288 289 289 289 288 287 287 286 285 285 285 285 285 285 285 285 285 284 284 284 284 284 285 285 286 286 286 286 286 286 286 286 285 284 283 283 282 281 280 279 278 277 277 276 276 275 275 275 274 273 273 272 271 271 271 272 272 273 274 275 276 276 277 277 277 277 276
285 285 286 284 283 283 282 281 280 281 283 284 285 285 285 285 285 286 288 289 290 290 289 287 286 285 284 284 284 284 284 284 284 284 284 284 283 283 283 284 285 285 286 286 287 287 287 287 287 286 286 286 286 285 285 284 284 283 283 282 282 281 280 280 279 279 278 277 276 275 274 273 272 272 272 273 273 274 275 275 276 276 277 277 277 277
285 283 280 279 279 278 275 275 277 280 282 285 286 287 288 287 286 287 288 288 288 288 287 285 284 283 283 285 285 286 286 286 287 287 286 286 286 286 286 287 287 287 287 287 288 288 288 288 287 287 287 287 286 286 286 286 286 286 286 286 286 286 285 285 284 283 283 281 280 278 277 275 274 273 273 273 274 274 275 275 276 276 277 277 278 278
280 281 279 277 278 279 278 275 274 276 280 281 283 286 289 289 288 287 287 287 286 286 285 285 285 285 286 288 289 290 290 290 291 291 290 290 290 289 289 289 288 287 286 286 286 286 286 286 286 285 285 285 285 286 286 287 287 288 288 288 288 288 287 287 286 285 284 283 282 280 279 277 275 275 274 274 274 274 275 276 277 278 278 278 279 279
276 279 281 278 276 276 278 278 277 275 276 277 279 280 283 286 287 287 285 284 284 284 284 286 288 289 290 290 290 291 291 291 291 290 289 288 287 287 287 286 285 284 283 283 283 283 283 283 282 282 282 282 283 283 284 285 286 287 287 287 287 287 286 286 285 284 283 282 281 280 279 278 277 276 275 275 275 275 276 277 278 279 279 280 280 280
276 277 278 277 275 272 271 275 277 279 278 277 275 272 269 274 280 284 284 284 284 284 285 287 290 292 293 291 289 289 290 292 292 291 289 287 285 284 283 281 280 279 279 279 279 279 279 279 279 279 279 279 280 281 282 283 283 284 284 284 284 284 284 284 283 283 282 281 280 279 278 278 277 276 276 276 275 275 275 276 277 278 278 279 280 280
275 275 274 273 273 272 269 272 275 277 277 275 273 271 267 268 273 279 284 286 288 289 290 290 290 289 287 285 285 287 290 293 294 293 290 288 286 284 282 279 277 276 277 277 277 277 278 278 278 278 278 277 278 278 279 280 280 281 281 281 281 282 282 282 282 281 281 280 279 279 278 277 277 277 277 276 275 275 274 274 274 275 276 277 278 279
272 272 272 271 269 268 269 272 273 273 271 273 276 279 280 278 278 279 281 285 288 293 296 295 290 283 276 277 282 288 293 293 292 290 287 286 286 285 284 282 281 279 278 277 278 279 279 280 280 279 278 277 276 276 276 278 278 279 279 279 280 280 280 280 280 280 280 280 279 278 278 277 276 276 276 275 275 274 273 273 272 272 273 274 275 276
269 268 265 262 261 261 264 270 274 277 277 278 281 283 286 287 287 286 285 287 290 293 293 288 282 277 274 280 287 292 293 291 288 286 284 284 285 285 286 285 283 281 278 278 278 280 282 283 282 280 278 276 276 276 276 277 278 278 279 279 279 279 280 280 280 279 279 279 278 278 277 276 275 275 274 274 274 273 272 272 271 271 270 271 272 273
264 263 261 261 263 267 271 276 279 281 280 281 283 285 287 287 287 287 286 288 289 288 283 278 277 279 282 287 290 290 288 287 287 288 289 290 290 290 289 288 285 282 280 280 281 283 285 285 284 283 282 280 280 279 280 280 280 280 280 280 280 280 280 280 279 279 279 278 278 277 276 275 275 274 273 273 272 272 271 271 270 270 270 271 271 272
265 268 271 274 276 276 278 279 278 278 278 279 280 281 282 281 281 280 280 281 282 282 280 282 285 287 286 285 286 287 288 290 293 295 297 296 296 295 294 291 289 287 286 285 285 287 288 287 285 285 284 283 282 282 282 282 282 282 282 282 281 281 280 280 279 279 279 278 278 277 276 275 274 274 273 272 272 272 271 271 271 271 271 272 273 273
273 274 276 278 278 278 277 276 276 275 275 274 273 271 271 272 274 275 275 276 278 280 281 287 290 292 289 287 285 287 292 295 298 299 299 297 296 295 294 291 290 289 290 288 287 287 286 285 283 282 281 281 281 282 283 284 284 284 284 284 283 282 281 280 280 280 279 279 279 278 277 276 275 275 274 274 273 273 273 272 272 272 273 274 275 275
272 271 273 274 275 276 277 277 275 273 272 271 271 270 269 269 269 270 270 272 274 277 280 282 282 283 284 285 285 288 294 296 297 298 297 294 293 292 292 289 288 288 288 287 287 286 286 283 281 279 279 281 282 283 284 285 286 286 286 285 285 284 283 282 281 281 281 281 281 280 279 278 278 277 277 276 276 275 274 274 274 274 275 275 276 277
273 272 272 273 274 275 275 274 275 276 275 273 273 273 273 271 271 272 273 275 276 276 276 274 272 271 274 277 281 284 286 287 289 290 290 291 291 290 287 284 282 281 283 284 286 286 286 283 281 281 281 281 282 283 283 284 286 286 287 287 286 285 285 284 284 284 283 283 283 282 281 281 280 279 279 278 277 276 276 276 276 276 277 277 278 279
271 271 271 275 277 276 271 267 267 270 274 276 278 279 279 280 280 280 279 278 275 272 268 267 266 266 266 271 274 277 279 280 282 283 284 286 286 286 285 283 283 283 283 284 285 287 288 287 285 283 281 281 281 282 283 284 285 287 287 287 287 287 286 286 286 285 285 284 284 283 282 282 281 280 278 277 277 276 276 277 278 279 280 281 281 282
267 265 263 266 269 272 271 271 272 275 279 284 286 286 284 283 281 279 276 273 270 266 262 261 260 261 263 267 272 277 283 286 286 284 283 282 283 284 286 287 287 286 285 285 287 289 290 288 286 285 283 283 283 283 284 285 286 287 287 288 288 287 287 287 287 286 286 285 284 283 282 281 279 278 277 277 276 277 278 279 280 281 282 283 284 285
262 262 261 262 264 267 272 275 276 278 279 280 279 277 276 275 273 271 269 267 266 265 263 263 265 268 271 273 277 281 284 285 283 280 279 279 281 283 288 290 289 287 285 286 288 290 289 287 286 286 288 288 287 287 287 287 287 287 287 287 288 288 288 288 287 287 286 285 284 282 280 279 278 277 277 277 278 279 280 281 282 283 284 285 285 286
257 260 263 263 264 267 271 274 275 275 273 270 267 264 263 263 264 264 265 265 267 268 271 273 275 276 275 275 275 275 275 274 273 273 274 277 281 285 289 288 286 284 283 286 288 289 288 287 288 290 292 291 290 289 287 287 287 287 287 287 287 288 288 288 287 287 286 285 283 281 279 278 278 278 278 279 280 282 283 284 285 285 286 286 286 286
256 260 263 264 264 263 264 265 265 265 263 260 259 258 257 258 259 261 265 267 270 273 276 278 277 274 270 268 269 270 270 271 271 271 270 275 279 282 285 285 283 282 282 285 287 288 288 288 290 293 295 290 288 287 286 285 286 286 287 287 288 288 288 288 287 286 285 284 283 281 280 279 279 279 280 281 283 284 285 286 286 287 287 287 287 287
254 256 257 257 255 253 253 254 256 257 258 258 259 258 257 258 260 263 265 265 265 266 270 273 274 275 275 273 274 274 276 278 276 271 266 271 274 277 280 281 281 281 282 284 285 287 288 290 292 292 291 288 286 285 284 285 286 287 288 289 290 290 289 288 288 287 286 285 284 282 281 280 280 280 281 282 284 285 286 287 287 288 288 289 289 288
250 251 252 255 256 257 259 261 264 266 268 270 270 269 266 266 267 265 261 256 256 261 270 278 282 284 285 283 282 282 282 280 274 268 263 268 274 277 279 279 280 281 283 286 288 289 290 291 291 290 287 286 285 285 285 286 287 288 290 292 292 292 291 290 289 288 287 286 284 283 281 280 280 281 282 283 284 285 287 289 290 291 291 291 290 289
255 257 259 261 264 266 269 272 274 276 277 279 280 281 280 282 282 281 278 276 278 283 288 289 289 288 287 284 282 283 286 284 279 275 275 277 278 278 279 281 283 285 287 288 289 291 292 291 290 287 284 283 284 286 286 287 288 289 292 293 294 294 293 291 290 288 287 286 284 282 280 280 280 281 282 284 287 289 291 293 295 295 294 294 292 288
263 264 266 268 270 272 275 278 280 282 284 286 286 287 288 290 291 290 290 294 296 296 291 287 286 286 286 284 284 287 289 289 290 289 289 283 278 276 279 283 285 287 290 292 295 296 294 290 287 285 282 281 282 284 286 287 288 290 292 294 295 295 293 290 288 287 285 284 282 280 279 279 280 281 284 287 291 294 296 298 299 298 296 294 292 288
268 267 268 269 272 274 278 281 284 286 286 286 287 288 291 290 288 287 288 293 293 289 283 280 280 281 282 284 286 286 286 284 285 287 290 282 275 273 279 284 290 296 303 303 301 297 289 284 283 284 284 286 288 289 289 290 290 291 293 294 293 291 289 286 284 282 280 279 277 276 276 277 279 282 286 290 294 297 299 300 301 299 297 294 291 289
271 271 270 271 274 277 281 283 282 281 279 280 281 283 284 282 279 279 283 285 284 279 276 275 275 276 279 283 283 281 277 275 280 290 309 292 284 282 289 290 294 298 305 303 297 289 282 280 281 285 291 296 297 297 295 293 291 290 291 291 289 287 284 280 277 274 272 271 270 270 271 273 276 281 285 289 293 296 298 301 301 300 297 294 291 289
280 279 278 279 279 280 278 273 271 270 272 275 277 279 279 276 274 275 277 276 274 270 269 269 270 272 275 279 279 278 278 282 298 319 337 305 290 287 289 288 287 287 290 292 293 292 291 288 287 291 298 301 299 295 291 290 289 289 288 288 286 284 281 276 271 267 264 262 262 262 264 268 273 278 282 286 290 293 296 299 301 300 297 294 291 288
284 283 283 283 281 278 273 270 269 270 272 273 274 275 275 274 272 272 271 268 265 262 260 261 264 266 269 270 273 276 280 288 300 308 311 297 285 282 283 283 285 288 291 289 290 291 294 295 297 300 302 297 292 288 285 287 288 289 288 286 284 283 281 276 270 264 259 256 255 256 259 264 269 274 278 282 285 288 292 295 297 297 295 292 289 288
288 286 282 278 275 272 270 270 270 270 270 271 273 275 276 274 271 268 266 262 257 254 252 254 258 261 264 264 265 267 271 276 284 291 298 293 286 284 288 291 295 298 300 294 287 284 284 289 294 297 294 288 283 281 282 285 286 286 286 286 285 284 283 280 276 270 266 261 258 256 257 261 265 269 272 274 277 281 284 288 290 291 292 291 289 288
287 280 275 272 270 268 267 266 265 265 267 270 274 278 279 275 270 265 260 255 250 246 244 247 251 255 259 261 262 264 267 270 277 287 305 301 296 293 298 298 299 300 300 293 287 283 279 281 284 287 287 282 278 277 280 283 284 284 286 287 286 286 286 284 282 278 276 272 267 264 261 262 263 264 266 267 270 273 277 282 285 286 286 287 288 289
280 275 273 270 269 267 267 267 269 271 276 281 284 285 281 275 269 263 255 249 243 240 239 241 244 249 254 261 266 269 272 277 287 298 309 303 298 295 296 294 295 296 293 288 284 282 278 278 279 282 285 286 286 284 285 286 286 286 287 285 283 280 280 282 283 283 281 276 273 270 268 268 267 265 264 265 267 270 275 279 281 283 283 284 284 286
273 271 270 268 268 269 271 275 280 286 292 294 294 290 282 274 268 262 255 248 243 240 240 242 244 247 252 260 268 274 279 285 293 299 302 299 296 294 291 290 290 290 287 283 281 280 281 283 286 289 293 295 295 295 292 289 285 284 283 279 276 273 272 276 279 281 281 277 274 272 271 272 272 272 271 270 271 272 275 277 279 281 282 282 281 281
272 271 270 271 272 275 280 286 292 297 300 298 293 286 277 271 267 264 259 254 251 250 250 251 252 253 254 259 266 272 279 285 290 293 293 292 291 289 285 284 284 283 281 283 286 289 292 293 294 294 293 292 292 292 292 289 283 278 277 275 273 270 267 268 270 273 274 273 273 273 273 274 275 276 278 275 274 274 275 276 278 279 280 280 279 278
275 276 276 278 281 285 290 295 299 300 298 293 286 279 273 270 268 265 263 258 254 253 255 256 257 258 258 262 264 268 273 277 280 283 283 282 281 279 277 278 278 277 277 282 288 291 292 291 290 289 286 284 284 285 288 289 286 284 283 282 277 271 265 261 260 260 263 266 268 270 272 274 277 280 283 283 282 282 281 281 282 282 282 283 281 280
276 278 281 284 289 293 297 298 296 293 288 281 276 272 270 269 266 263 260 258 254 252 253 256 260 264 263 264 265 268 270 273 275 274 272 269 269 270 272 275 278 279 279 279 280 280 280 280 281 283 285 286 286 286 287 287 287 289 292 289 280 267 254 250 247 248 251 257 261 266 269 274 279 284 288 290 289 289 289 290 292 294 295 297 293 288
278 281 285 289 292 295 296 292 288 284 279 275 272 270 268 267 265 262 259 258 257 256 257 258 261 265 266 265 265 266 267 269 269 268 264 258 257 261 267 273 277 280 280 275 271 269 269 271 273 276 278 282 284 287 287 286 287 289 294 292 284 271 254 246 240 238 240 247 255 263 270 278 285 289 289 289 289 290 292 295 298 301 303 303 302 299
281 284 289 292 295 294 292 286 281 277 275 274 272 269 264 263 263 263 260 258 257 257 256 256 258 260 260 258 257 257 258 259 259 259 258 252 251 254 262 267 270 272 273 270 266 264 263 266 268 271 272 275 277 278 279 281 284 287 290 289 287 285 279 264 251 241 236 240 246 255 266 275 279 282 286 288 290 293 297 298 300 300 300 298 296 296
283 287 291 293 292 289 284 279 276 273 272 271 268 265 260 259 260 263 267 268 267 265 261 261 262 263 264 260 256 252 249 251 254 257 259 256 254 255 259 261 263 265 267 266 264 262 261 263 266 268 271 273 274 276 276 278 282 284 285 284 285 285 281 269 258 247 241 240 242 247 256 269 277 284 292 298 300 301 301 299 297 295 293 291 287 286
286 288 290 290 288 285 282 279 277 274 272 268 264 261 257 259 265 272 278 278 277 275 272 268 268 270 274 274 269 261 252 250 256 261 266 264 261 259 258 258 259 259 260 262 263 264 264 263 264 265 267 270 273 275 279 281 283 283 279 279 280 281 278 267 257 251 249 254 261 269 273 282 291 299 302 302 301 299 296 292 289 286 282 282 281 281
286 288 290 290 288 286 283 281 279 276 274 269 265 262 265 275 282 285 284 281 280 278 277 275 274 274 274 274 273 271 269 269 271 274 275 271 264 258 255 253 253 253 254 258 264 268 270 267 265 264 265 268 270 273 277 280 281 281 279 276 274 273 273 281 285 284 264 268 266 268 272 283 292 297 297 295 293 291 289 286 282 279 277 278 279 279
287 289 289 286 283 279 275 273 271 268 263 260 264 275 284 288 288 286 284 284 284 282 280 278 277 275 271 270 273 277 287 291 292 289 283 274 266 259 251 247 247 249 251 255 259 265 271 272 272 271 270 270 269 270 272 274 276 276 276 275 273 271 271 280 286 286 269 267 266 267 276 292 300 300 296 294 293 291 288 285 285 284 285 283 281 280
282 283 281 278 276 273 272 274 276 278 279 284 287 289 289 287 286 284 284 285 284 282 279 275 271 269 270 274 280 290 299 300 300 299 296 290 281 270 255 244 241 242 246 250 253 257 262 268 272 276 277 273 270 268 267 270 272 274 276 276 275 273 270 273 276 278 278 277 280 287 303 314 310 303 297 296 294 291 287 286 287 289 291 289 287 285
279 279 279 279 281 286 297 310 319 321 315 307 298 290 283 282 282 282 282 281 279 277 274 270 266 265 267 273 281 292 299 301 302 303 304 303 299 293 283 268 259 255 256 258 258 257 256 258 261 265 270 271 270 269 268 269 271 275 279 282 280 276 268 262 260 263 270 276 287 302 320 319 308 299 295 296 294 293 291 292 293 293 291 290 290 289
284 283 283 287 297 313 328 331 326 316 306 298 292 287 283 281 281 282 282 280 278 276 273 270 268 267 267 270 276 286 293 297 300 302 303 303 302 301 297 292 286 281 279 276 272 266 259 251 249 250 256 263 269 273 275 276 277 279 283 286 286 282 276 270 263 257 262 281 304 319 323 315 307 303 302 301 299 299 301 301 298 294 290 291 292 293
284 283 284 292 301 309 309 309 305 301 297 296 293 291 288 286 284 283 282 281 279 276 273 271 271 270 269 270 274 280 288 291 294 296 298 300 301 299 297 297 298 299 298 294 287 279 267 250 238 233 236 245 257 268 275 278 282 284 287 288 288 288 288 288 286 284 289 316 324 322 313 304 302 302 304 302 302 303 304 300 296 293 294 297 297 295
282 281 284 289 293 295 298 299 300 299 298 298 296 293 291 288 283 280 276 274 271 269 267 268 268 269 268 268 270 276 282 286 288 290 292 295 297 297 298 303 309 313 313 309 305 300 291 268 237 222 217 223 235 253 271 279 283 285 284 283 286 290 295 302 313 336 19 350 318 298 288 283 282 284 291 296 299 301 302 299 299 302 315 313 306 301
278 278 281 283 286 288 292 295 295 295 295 294 293 292 291 288 285 281 277 273 270 267 265 265 265 264 263 263 265 270 277 282 284 285 286 288 291 294 298 307 315 321 321 320 319 319 317 312 288 237 208 205 216 237 274 288 293 293 290 289 290 297 302 311 326 355 19 331 293 278 273 271 273 277 287 295 301 304 306 307 311 322 337 332 323 316